FW1809 Weather Reports


time (UTC)temp
F
wind
direction
speed
knots
gust
knots
rain 1hr
in
rain 24hr
in
rain mn
in
humidity
%
barometer
mb
20260502194600 53 212 0.0 5.2 0.00 0.00 0.00 79 1010.3
20260502193040 51 190 0.9 3.5 0.00 0.00 0.00 80 1010.5
20260502191541 51 249 1.7 7.8 0.00 0.00 0.00 80 1010.6
20260502190040 53 254 2.6 8.7 0.00 0.00 0.00 78 1010.7
20260502184538 56 305 2.6 7.8 0.00 0.00 0.00 72 1010.6
20260502183045 58 163 1.7 5.2 0.00 0.00 0.00 71 1010.3
20260502181534 57 157 0.9 8.7 0.00 0.00 0.00 72 1010.5
20260502163019 53 107 1.7 5.2 0.00 0.00 0.00 84 1011.3
20260502161515 52 178 1.7 5.2 0.00 0.00 0.00 84 1011.3
20260502151513 52 71 0.0 3.5 0.00 0.00 0.00 79 1011.8
20260502130106 48 355 0.9 3.5 0.00 0.00 0.00 90 1011.8
20260502123055 47 288 0.0 1.7 0.00 0.00 0.00 91 1011.9
20260502121601 47 269 0.0 1.7 0.00 0.00 0.00 91 1012.0
20260502120112 47 259 0.0 2.6 0.00 0.00 0.00 90 1012.3
20260502114557 47 269 0.0 0.0 0.00 0.00 0.00 90 1012.3
20260502113111 47 269 0.9 3.5 0.00 0.00 0.00 90 1012.5
20260502111552 47 186 0.0 1.7 0.00 0.00 0.00 90 1012.4
20260502110051 46 186 0.0 3.5 0.00 0.00 0.00 90 1012.2
20260502104548 46 142 0.0 1.7 0.00 0.00 0.00 89 1012.0
20260502103108 46 143 0.0 0.9 0.00 0.00 0.00 88 1011.6
20260502101552 46 137 0.0 0.0 0.00 0.00 0.00 88 1011.5
20260502071535 47 138 0.0 1.7 0.00 0.00 0.00 82 1011.4
20260502070032 47 135 0.0 2.6 0.00 0.00 0.00 82 1011.4
20260502064536 47 138 0.0 0.9 0.00 0.00 0.00 81 1011.3
20260502063029 47 138 0.0 0.9 0.00 0.00 0.00 81 1011.5
20260502061526 47 137 0.0 1.7 0.00 0.00 0.00 80 1011.6
20260502060024 47 157 0.0 2.6 0.00 0.00 0.00 80 1011.8
20260502054524 48 147 0.0 3.5 0.00 0.00 0.00 79 1011.8
20260502053019 48 157 0.0 0.0 0.00 0.00 0.00 79 1011.8
20260502051519 48 153 0.0 2.6 0.00 0.00 0.00 78 1012.0
20260502050015 49 167 0.9 4.3 0.00 0.00 0.00 77 1012.1
20260502044513 49 107 0.9 5.2 0.00 0.00 0.00 77 1012.1
20260502043013 49 167 1.7 3.5 0.00 0.00 0.00 76 1012.3
20260502041508 49 156 0.9 5.2 0.00 0.00 0.00 75 1012.0
20260502040008 49 140 0.0 2.6 0.00 0.00 0.00 75 1012.1
20260502034508 49 143 0.0 4.3 0.00 0.00 0.00 74 1012.3
20260502033008 49 149 0.0 1.7 0.00 0.00 0.00 74 1012.3
20260502031504 49 153 0.0 1.7 0.00 0.00 0.00 73 1012.4
20260502030004 49 147 0.0 1.7 0.00 0.00 0.00 72 1012.3
20260502024503 50 150 0.0 2.6 0.00 0.00 0.00 72 1012.3
20260502023002 50 194 0.0 0.9 0.00 0.00 0.00 71 1012.3
20260502021501 50 169 0.0 5.2 0.00 0.00 0.00 70 1012.3
20260502020002 50 164 0.0 1.7 0.00 0.00 0.00 69 1012.3
20260502014500 51 157 0.9 4.3 0.00 0.00 0.00 69 1012.4
20260502013102 51 182 2.6 7.0 0.00 0.00 0.00 68 1012.4
20260502011559 51 155 0.9 2.6 0.00 0.00 0.00 65 1012.3
20260502010059 52 146 0.0 2.6 0.00 0.00 0.00 63 1012.1
20260502004556 52 140 0.0 4.3 0.00 0.00 0.00 61 1011.8
20260502003056 53 150 1.7 6.1 0.00 0.00 0.00 58 1011.5
20260502001554 54 163 1.7 7.0 0.00 0.00 0.00 51 1011.3
20260502000053 55 161 0.0 2.6 0.00 0.00 0.00 48 1010.9
20260501234554 56 173 0.9 3.5 0.00 0.00 0.00 47 1010.7
20260501233057 57 183 0.9 7.0 0.00 0.00 0.00 46 1010.5
20260501231551 58 180 0.9 5.2 0.00 0.00 0.00 45 1010.4
20260501230051 59 235 0.0 6.1 0.00 0.00 0.00 42 1010.2
20260501224551 60 228 1.7 10.4 0.00 0.00 0.00 40 1010.0
20260501223057 61 240 1.7 10.4 0.00 0.00 0.00 39 1010.0
20260501221550 61 175 0.9 6.1 0.00 0.00 0.00 39 1009.9
20260501220048 62 171 3.5 8.7 0.00 0.00 0.00 39 1009.8
20260501214547 62 262 2.6 8.7 0.00 0.00 0.00 40 1010.1
20260501213051 61 259 3.5 8.7 0.00 0.00 0.00 41 1009.9
20260501211555 61 333 1.7 10.4 0.00 0.00 0.00 42 1009.8
20260501210144 61 240 1.7 6.1 0.00 0.00 0.00 39 1009.8
20260501204554 61 138 3.5 8.7 0.00 0.00 0.00 39 1009.8
20260501203054 61 294 0.9 7.8 0.00 0.00 0.00 42 1009.7
20260501201543 62 294 3.5 7.0 0.00 0.00 0.00 38 1009.7
20260501200041 62 184 3.5 12.2 0.00 0.00 0.00 37 1009.7